[[{"header":{"parameterUnit":"m.s-1","parameterCategory":1,"la1":30.2991,"la2":30.254,"lo1":-89.0895,"lo2":-89.0444,"dy":0.0017,"dx":0.0017,"nx":28,"ny":28,"refTime":"2024-05-31T03:00:00:Z","depth":0,"parameterNumber":2,"parameterNumberName":"U-component_of_WINDS"},"data":[0,0,0,0,0,0,0,0,0,0,0,0,0,0,0,0,0,0,0,0,0,0,0,0,0,0,0,0,0,0,0,0,0,0,0,0,0,0,0,0,0,0,0,0,0,0,0,0,0,0,0,0,0,0,0,0,0,0,-4.0491,-4.0492,0,-4.0583,-4.0584,-4.0585,-4.0597,-4.0597,-4.0596,-4.0595,-4.0685,-4.0688,-4.0691,0,0,0,0,0,0,0,0,0,0,0,0,0,-4.0322,-4.0325,-4.0491,-4.0492,-4.0493,-4.0583,-4.0584,-4.0585,-4.0598,-4.0596,-4.0595,-4.0594,-4.0684,-4.0688,-4.0691,0,0,0,0,0,0,0,0,0,0,0,0,0,-4.0403,-4.0326,-4.0491,-4.051,-4.0513,-4.0582,-4.0584,-4.0586,-4.0598,-4.0596,-4.0595,-4.0594,-4.0683,-4.0687,-4.0692,-4.0747,0,0,-4.0707,-4.0709,0,0,0,0,0,0,0,0,-4.0398,-4.0409,-4.0506,-4.0509,-4.0512,-4.0577,-4.0557,-4.064,-4.0598,-4.0565,-4.0595,-4.0593,-4.065,-4.0657,-4.0677,-4.0751,-4.0755,-4.0707,-4.071,-4.0712,-4.0713,0,0,0,0,0,0,0,-4.0393,-4.0405,-4.0527,-4.0508,-4.0511,-4.0513,-4.0523,-4.0573,-4.0614,-4.0568,-4.0569,-4.058,-4.0651,-4.0673,-4.0679,-4.0756,-4.0707,-4.0711,-4.0714,-4.0716,-4.0879,-4.088,0,0,0,0,0,0,-4.0384,-4.04,-4.0524,-4.053,-4.0451,-4.0517,-4.0528,-4.0558,-4.0613,-4.062,-4.0581,-4.058,-4.0665,-4.0674,-4.0683,-4.075,-4.0712,-4.0716,-4.0719,-4.0877,-4.0879,-4.0881,0,0,0,0,0,0,-4.038,-4.0395,-4.0521,-4.0466,-4.0482,-4.0522,-4.0554,-4.056,-4.0582,-4.0623,-4.063,-4.0596,-4.0664,-4.0676,-4.0731,-4.0753,-4.0718,-4.0723,-4.0876,-4.0878,-4.088,-4.0885,0,0,0,0,0,0,-4.0375,-4.0394,-4.0416,-4.0466,-4.0485,-4.0569,-4.0556,-4.0563,-4.059,-4.059,-4.0639,-4.0645,-4.0664,-4.0724,-4.0736,-4.0759,-4.0727,-4.0874,-4.0877,-4.0879,-4.0883,-4.0887,-4.0891,0,0,0,0,0,-4.0369,-4.0413,-4.0417,-4.0432,-4.0514,-4.057,-4.058,-4.0603,-4.0592,-4.0614,-4.0641,-4.0644,-4.0749,-4.0729,-4.0743,-4.0768,-4.0872,-4.0876,-4.0879,-4.0881,-4.0886,-4.089,0,0,0,0,0,0,-4.0363,-4.042,-4.0425,-4.0487,-4.0523,-4.0572,-4.0601,-4.0607,-4.0647,-4.0645,-4.0669,-4.068,-4.0734,-4.0757,-4.0734,-4.0823,-4.081,-4.0816,-4.0807,-4.0812,-4.0815,-4.0808,-4.0731,0,0,0,0,0,-4.0369,-4.0412,-4.0459,-4.0508,-4.0527,-4.056,-4.0586,-4.06,-4.0638,-4.0654,-4.0684,-4.072,-4.0762,-4.0788,-4.0828,-4.0887,-4.0896,-4.0911,-4.0914,-4.0917,-4.0922,-4.0953,-4.0959,-4.0892,-4.0891,-4.0891,0,0,-4.0382,-4.0418,-4.0443,-4.0508,-4.0538,-4.058,-4.0573,-4.0618,-4.0649,-4.066,-4.0714,-4.0738,-4.078,-4.0836,-4.0863,-4.0857,-4.0943,-4.0921,-4.0923,-4.0926,-4.0957,-4.0963,-4.0969,-4.0894,-4.0893,-4.0893,0,0,-4.0426,-4.0458,-4.0503,-4.0533,-4.058,-4.0602,-4.0612,-4.066,-4.0676,-4.0731,-4.074,-4.0776,-4.0847,-4.0877,-4.0901,-4.0955,-4.0959,-4.0968,-4.0987,-4.1017,-4.1022,-4.1027,-4.1045,-4.1052,-4.0972,-4.0972,-4.0972,0,-4.0435,-4.05,-4.0524,-4.0569,-4.0596,-4.061,-4.0654,-4.0682,-4.0738,-4.0756,-4.0749,-4.0838,-4.0867,-4.093,-4.0944,-4.0963,-4.0975,-4.0962,-4.102,-4.1025,-4.103,-4.1047,-4.1054,-4.0973,-4.0973,-4.0973,-4.0973,0,-4.0508,-4.0553,-4.0583,-4.0638,-4.0669,-4.0713,-4.0743,-4.0771,-4.0782,-4.0805,-4.0859,-4.0895,-4.0942,-4.0959,-4.097,-4.1023,-4.1018,-4.1015,-4.1001,-4.1036,-4.1053,-4.106,-4.0974,-4.0974,-4.0973,-4.0973,0,0,-4.0551,-4.0619,-4.063,-4.0654,-4.0706,-4.074,-4.0784,-4.0832,-4.0855,-4.0893,-4.093,-4.0989,-4.0987,-4.1014,-4.1029,-4.1055,-4.1094,-4.1049,-4.105,-4.1055,-4.1154,-4.1154,-4.1162,-4.1098,-4.1099,-4.11,-4.115,0,-4.06,-4.068,-4.0703,-4.077,-4.0811,-4.0824,-4.0862,-4.0897,-4.0919,-4.0955,-4.0979,-4.102,-4.1015,-4.1031,-4.1058,-4.1084,-4.1114,-4.1081,-4.113,-4.1132,-4.1118,-4.1171,-4.1172,-4.1217,-4.1156,-4.1158,-4.1158,0,-4.0668,-4.0709,-4.078,-4.0826,-4.0843,-4.0878,-4.0922,-4.0958,-4.0997,-4.1011,-4.1041,-4.1053,-4.1098,-4.1083,-4.1144,-4.112,-4.1142,-4.1158,-4.116,-4.1164,-4.1146,-4.1175,-4.1232,-4.1238,-4.1169,-4.1168,-4.1168,0,-4.069,-4.0763,-4.0815,-4.0835,-4.089,-4.0914,-4.0937,-4.0976,-4.1002,-4.1041,-4.1058,-4.1101,-4.1124,-4.1157,-4.1179,-4.1166,-4.1238,-4.1225,-4.1249,-4.1249,-4.1263,-4.1261,-4.1322,-4.1279,-4.1279,-4.1279,-4.1278,0,-4.0742,-4.0785,-4.0825,-4.0857,-4.0905,-4.093,-4.0976,-4.1,-4.1034,-4.1069,-4.1083,-4.1115,-4.1144,-4.118,-4.1198,-4.1245,-4.1255,-4.1267,-4.1271,-4.1265,-4.1263,-4.1279,-4.1276,-4.128,-4.128,-4.128,-4.1279,0,-4.0775,-4.0804,-4.0861,-4.0909,-4.0921,-4.0954,-4.0994,-4.1024,-4.1047,-4.1091,-4.1103,-4.1138,-4.1181,-4.1207,-4.1261,-4.1273,-4.1325,-4.1328,-4.1312,-4.1313,-4.1336,-4.1333,-4.1408,-4.1418,-4.1369,-4.1369,-4.1369,0,-4.0806,-4.084,-4.089,-4.0916,-4.094,-4.098,-4.1008,-4.1033,-4.1061,-4.1108,-4.1132,-4.1176,-4.1213,-4.1281,-4.131,-4.1351,-4.1355,-4.1378,-4.1361,-4.1354,-4.1354,-4.1351,-4.1354,-4.1381,-4.1381,-4.1382,-4.1382,0,-4.0858,-4.087,-4.091,-4.0954,-4.0986,-4.1022,-4.1058,-4.1077,-4.1109,-4.1139,-4.1183,-4.1212,-4.1267,-4.131,-4.1354,-4.1377,-4.1384,-4.1387,-4.1395,-4.1389,-4.1377,-4.1383,-4.1318,-4.1385,-4.1385,-4.1385,-4.1384,-4.1384,-4.089,-4.092,-4.096,-4.1003,-4.1033,-4.1065,-4.1096,-4.1122,-4.116,-4.1208,-4.1221,-4.1267,-4.1304,-4.1364,-4.1388,-4.1423,-4.142,-4.1431,-4.1434,-4.1436,-4.1436,-4.1373,-4.1431,-4.1431,-4.1431,-4.1431,-4.1431,0,-4.0941,-4.0968,-4.1007,-4.1057,-4.109,-4.1095,-4.1135,-4.1162,-4.1203,-4.1238,-4.1273,-4.1324,-4.1365,-4.1398,-4.144,-4.1462,-4.1467,-4.1472,-4.1471,-4.1475,-4.1437,-4.1426,-4.1468,-4.1468,-4.1468,-4.1468,-4.1468,-4.1468,-4.0972,-4.1022,-4.1039,-4.1103,-4.1129,-4.1175,-4.1197,-4.1227,-4.1254,-4.131,-4.1345,-4.1367,-4.14,-4.1445,-4.1482,-4.1491,-4.1505,-4.151,-4.1519,-4.1482,-4.1478,-4.1474,-4.1464,-4.1513,-4.1513,-4.1554,-4.1554,-4.1555]},{"header":{"parameterUnit":"m.s-1","parameterCategory":1,"la1":30.2991,"la2":30.254,"lo1":-89.0895,"lo2":-89.0444,"dy":0.0017,"dx":0.0017,"nx":28,"ny":28,"refTime":"2024-05-31T03:00:00:Z","depth":0,"parameterNumber":3,"parameterNumberName":"V-component_of_WINDS"},"data":[0,0,0,0,0,0,0,0,0,0,0,0,0,0,0,0,0,0,0,0,0,0,0,0,0,0,0,0,0,0,0,0,0,0,0,0,0,0,0,0,0,0,0,0,0,0,0,0,0,0,0,0,0,0,0,0,0,0,4.7899,4.7899,0,4.7923,4.7923,4.7923,4.7885,4.7883,4.7882,4.7881,4.7903,4.7904,4.7906,0,0,0,0,0,0,0,0,0,0,0,0,0,4.7816,4.7818,4.7899,4.7899,4.7899,4.7923,4.7923,4.7924,4.7885,4.7883,4.7882,4.788,4.7902,4.7904,4.7906,0,0,0,0,0,0,0,0,0,0,0,0,0,4.7847,4.7818,4.7899,4.7883,4.7882,4.7923,4.7923,4.7924,4.7885,4.7883,4.7881,4.7879,4.7901,4.7904,4.7907,4.7963,0,0,4.7915,4.7916,0,0,0,0,0,0,0,0,4.7845,4.785,4.7885,4.7884,4.7883,4.7899,4.7902,4.7937,4.7886,4.7884,4.7881,4.7879,4.7903,4.7905,4.7914,4.7964,4.7965,4.7915,4.7917,4.7918,4.7919,0,0,0,0,0,0,0,4.7843,4.7849,4.7908,4.7886,4.7884,4.7874,4.7876,4.7908,4.7904,4.7884,4.7881,4.7885,4.7902,4.7911,4.7914,4.7965,4.7915,4.7917,4.7919,4.792,4.8062,4.8064,0,0,0,0,0,0,4.7843,4.7847,4.7907,4.7909,4.7859,4.7877,4.7879,4.7896,4.7904,4.7903,4.7886,4.7883,4.7908,4.7911,4.7915,4.7981,4.7918,4.792,4.7922,4.806,4.8063,4.8065,0,0,0,0,0,0,4.7842,4.7849,4.7906,4.7877,4.7884,4.788,4.7899,4.7897,4.7907,4.7906,4.7904,4.7897,4.7906,4.7911,4.7951,4.7981,4.7922,4.7924,4.8058,4.8061,4.8064,4.8114,0,0,0,0,0,0,4.784,4.7849,4.7871,4.7878,4.7886,4.7944,4.7901,4.7899,4.7912,4.7908,4.7915,4.7915,4.7905,4.7948,4.7954,4.7984,4.7926,4.8055,4.8059,4.8063,4.811,4.8119,4.8126,0,0,0,0,0,4.7837,4.7884,4.7872,4.788,4.7914,4.7946,4.795,4.7939,4.7915,4.7936,4.7935,4.7915,4.7977,4.7952,4.7959,4.799,4.8053,4.8058,4.8062,4.8106,4.8117,4.8126,0,0,0,0,0,0,4.7879,4.7884,4.7872,4.7923,4.7934,4.7939,4.7966,4.795,4.7968,4.7963,4.7947,4.7949,4.7993,4.7995,4.7967,4.8045,4.8011,4.8017,4.8042,4.8052,4.806,4.8058,4.7928,0,0,0,0,0,4.7894,4.7921,4.7924,4.7968,4.7975,4.797,4.7983,4.7974,4.7984,4.7989,4.7991,4.8001,4.8023,4.8038,4.8058,4.811,4.8111,4.8135,4.8143,4.815,4.8156,4.8183,4.8194,4.8081,4.8081,4.8081,0,0,4.7926,4.7932,4.795,4.7977,4.7985,4.8012,4.7974,4.8004,4.8023,4.7993,4.8031,4.8033,4.8044,4.809,4.8111,4.8094,4.8187,4.8156,4.8162,4.8163,4.8189,4.82,4.8209,4.8084,4.8083,4.8083,0,0,4.7997,4.8005,4.8043,4.8052,4.8064,4.8061,4.807,4.8077,4.8078,4.8116,4.8094,4.8116,4.8154,4.8163,4.8172,4.8247,4.8228,4.8254,4.8297,4.8324,4.8332,4.834,4.8366,4.8376,4.8259,4.826,4.826,0,4.8035,4.8075,4.8064,4.8096,4.8108,4.8083,4.8121,4.8129,4.8147,4.8156,4.8137,4.8184,4.8189,4.8237,4.8256,4.8264,4.8273,4.8252,4.8332,4.834,4.8347,4.8372,4.8382,4.8263,4.8262,4.8262,4.8262,0,4.812,4.8149,4.8178,4.8197,4.8213,4.8247,4.824,4.8257,4.8246,4.8244,4.8284,4.8289,4.831,4.8321,4.831,4.8367,4.8356,4.8335,4.83,4.8361,4.8384,4.8393,4.8267,4.8266,4.8265,4.8264,0,0,4.8219,4.8232,4.8242,4.8251,4.8263,4.8284,4.8317,4.8338,4.8353,4.8366,4.8393,4.8426,4.8407,4.8417,4.8407,4.8431,4.8489,4.8407,4.8407,4.8422,4.8552,4.8568,4.8579,4.8477,4.8479,4.8481,4.8551,0,4.8289,4.8348,4.8338,4.8394,4.842,4.8397,4.8425,4.8435,4.8434,4.8455,4.8453,4.8477,4.845,4.8456,4.8479,4.8478,4.8515,4.8472,4.8501,4.8502,4.8499,4.8591,4.8608,4.8674,4.856,4.8562,4.8563,0,4.838,4.8398,4.8457,4.8465,4.8475,4.8501,4.852,4.854,4.8551,4.8548,4.8561,4.8546,4.8578,4.8544,4.8587,4.8558,4.8569,4.857,4.8573,4.8574,4.8536,4.8595,4.8695,4.8705,4.8577,4.8576,4.8575,0,4.8445,4.8484,4.8524,4.8532,4.8542,4.8561,4.8566,4.8575,4.8588,4.8604,4.8612,4.8631,4.8642,4.8656,4.8647,4.8623,4.8692,4.8657,4.869,4.869,4.8705,4.8704,4.8808,4.8713,4.8713,4.8713,4.8713,0,4.8525,4.8562,4.8553,4.8578,4.8618,4.8607,4.8646,4.8648,4.8656,4.868,4.8661,4.8683,4.867,4.8691,4.8684,4.8721,4.8726,4.8724,4.8722,4.8726,4.8726,4.8732,4.8727,4.8716,4.8715,4.8714,4.8714,0,4.8604,4.86,4.8642,4.8649,4.8652,4.8681,4.8686,4.8709,4.8706,4.8737,4.8743,4.8739,4.8763,4.8756,4.8781,4.8777,4.8823,4.8815,4.882,4.8818,4.8851,4.8848,4.8962,4.8977,4.8873,4.8874,4.8875,0,4.8655,4.8683,4.8693,4.8708,4.8715,4.874,4.8754,4.8743,4.8758,4.8772,4.8793,4.8815,4.8833,4.8872,4.8871,4.889,4.8882,4.8921,4.8885,4.8888,4.8882,4.8881,4.8883,4.8928,4.8929,4.893,4.8931,0,4.8746,4.8743,4.8764,4.8785,4.8802,4.8818,4.8831,4.8844,4.8834,4.8852,4.8877,4.8891,4.8917,4.8939,4.8957,4.8961,4.8944,4.8942,4.8951,4.8955,4.8957,4.8956,4.8839,4.894,4.8939,4.8938,4.8938,4.8937,4.8813,4.8837,4.8848,4.8872,4.8881,4.8894,4.8915,4.8916,4.8937,4.8959,4.8951,4.8979,4.8988,4.901,4.9017,4.9038,4.9023,4.9036,4.9039,4.9042,4.9046,4.8954,4.9041,4.9041,4.9041,4.9041,4.904,0,4.8903,4.8909,4.8931,4.8951,4.897,4.8953,4.8967,4.8984,4.9009,4.902,4.9038,4.9066,4.9088,4.9088,4.9108,4.9125,4.9118,4.9131,4.9129,4.913,4.9059,4.9049,4.9136,4.9136,4.9136,4.9136,4.9136,4.9136,4.8952,4.8991,4.8989,4.9032,4.9037,4.9066,4.9075,4.9086,4.9095,4.9128,4.9146,4.9147,4.9153,4.9173,4.9192,4.9191,4.9199,4.9215,4.9212,4.9145,4.9135,4.9126,4.9117,4.9217,4.9217,4.9281,4.9282,4.9282]}]]